Find Starlink 30820

NORAD ID: 58190 Int'l Des: 2023-167 Owner: SPXS Country: US Constellation: starlink operational
LEOCIRCULAR

实时位置

正在加载3D地球...

关于 Starlink 30820

正在加载描述...

即将过境

Passes for default location (London). Set your location on the main map for personalized predictions.

高度历史

Loading altitude history...

两行轨道根数

1 58190U 23167R 26125.21245441 -.00000034 00000-0 82823-5 0 9997
2 58190 43.0012 183.8276 0000668 270.3724 89.7051 15.27581080139634
Epoch: May 5, 2026 • Age: 4 hours

当前状态

高度 488.2 km
速度 7.62 km/s
星下点 -22.84°S, 28.73°E
发射日期 Oct 30, 2023
运行时间 2.5 years
类型 internet

技术详情

分类 Payload
质量 730.00 kg
干质量 700.00 kg
总质量 730.00 kg
长度 0.30 m
直径 4.10 m
跨度 29.00 m
形状 Box + pan
制造商 SPXS
平台类型 Starlink V2M
阶段状态 In Orbit
所有者/国家 SPXS/US

Most Searched